Погода в Красном

Украина / Львовская область     48°56′39″N   23°09′49″E
темп.,
°C
ветер,
м/с
пор.,
м/с
влажн.,
%
обл.,
%
осадки,
мм/ч
давл.,
гПа
погр.,
м
4 марта, чт
чт423:00−1ююз349868 0.0 102599
02:00+1ююз4129748 0.0 1024364
05:00+1ююз3139662 0.0 1021463
08:000ююз3119662 0.0 1020389
11:00+4ююз4108292 0.0 1017518
14:00+6юз597646 0.0 1015629
17:00+4юз310869 0.0 1014505
20:00+3юз399251 0.1 1014365
5 марта, пт
пт523:00+2юз2699100 2.1 1013249
02:00+2ююз2299100 5.1 101359
05:00+1ююз2299100 0.4 101250
08:00+2зюз1699100 1.9 1012391
11:00−1с3594100 3.6 1014442
14:00−1ссв4795100 5.5 1015557
17:00−3ссв5995100 2.9 1017636
20:00−5ссв4992100 4.1 1021717
6 марта, сб
сб623:00−7ссв31090100 0.0 1024400
02:00−9с239351 0.0 102695
05:00−9сз12870 0.0 102722
08:00−7зсз12883 0.0 102987
11:00−3ссз367146 0.1 10301226
14:00−3ссз466973 0.5 10301317
17:00−4ссз3575100 0.2 1031992
20:00−7зсз119098 0.3 103221
7 марта, вс
вс723:00−8юз119011 0.0 103221
02:00−8ююз22906 0.0 103133
05:00−8ююз310870 0.0 1029348
08:00−6юз413790 0.0 1028658
11:00−2юз611670 0.0 1026772
14:00−1юз711661 0.0 1023827
17:00−1юз6116817 0.0 1020756
20:00−4ююз411799 0.0 1021416
8 марта, пн
пн823:00−4ююз411810 0.0 1021379
02:00−6ююз289012 0.0 1020250
05:00−6ююз229530 0.0 101865
08:00−5ююз249158 0.0 1018196
11:00−1юз357180 0.0 1017736
14:00+1з356590 0.1 10161247
17:00−1зсз3581100 0.3 1016713
20:00−4зюз119598 0.4 101922